Location: Unspecified
(39.0670°S, 0.0000°E)
Time: 09:27:01
(UTC+00:00)

Hubble Space Telescope - Visible Passes

Search period start: 24 June 2019 00:00
Search period end: 04 July 2019 00:00
Orbit: 536 x 540 km, 28.5° (Epoch: 23 June)

Date Brightness Start Highest point End Pass type
(mag) Time Alt. Az. Time Alt. Az. Time Alt. Az.
30 Jun 3.5 06:51:02 10° NNW 06:53:22 15° NNE 06:55:42 10° NE visible
01 Jul 3.4 06:40:08 10° NNW 06:42:43 16° N 06:45:18 10° NE visible
02 Jul 3.3 06:29:19 10° NW 06:32:05 17° N 06:34:51 10° NE visible
03 Jul 3.6 04:41:10 11° NNE 04:41:10 11° NNE 04:42:00 10° NNE visible
03 Jul 3.1 06:18:34 10° NW 06:21:27 18° N 06:24:20 10° NE visible
